Regional Weather Roundup
Issued by NWS Cleveland, OH

Home | Current Version | Previous Version | Graphics & Text | Print | Product List | Glossary On
Versions: 1 2 3 4 5 6 7 8 9 10 11 12 13 14 15 16 17 18 19 20 21 22 23 24 25 26 27 28 29 30 31 32 33 34 35 36 37 38 39 40 41 42 43 44 45 46 47 48 49 50
000
ASUS41 KCLE 271702
RWRCLE
OHIO REGIONAL WEATHER ROUNDUP
NATIONAL WEATHER SERVICE CLEVELAND, OH
100 PM EDT SAT MAY 27 2017

NOTE: "FAIR" INDICATES FEW OR NO CLOUDS BELOW 12,000 FEET WITH NO
SIGNIFICANT WEATHER AND/OR OBSTRUCTIONS TO VISIBILITY.

OHZ001>008-015>018-024>027-034-035-043-044-271800-
   NORTHWEST OHIO

CITY           SKY/WX    TMP DP  RH WIND       PRES   REMARKS
DEFIANCE       CLOUDY    70  60  70 E8        29.89F
FINDLAY        PTSUNNY   74  61  63 NE7       29.88S
TOLEDO EXPRESS PTSUNNY   71  59  65 VRB6      29.90F
TOLEDO EXEC    MOSUNNY   73  59  61 NE7       29.91S
LIMA           CLOUDY    71  64  78 E3        29.89F
$$

OHZ009>014-019>023-028>033-038-089-271800-
   NORTHEAST OHIO

CITY           SKY/WX    TMP DP  RH WIND       PRES   REMARKS
CLE-HOPKINS    MOSUNNY   73  58  59 N10       29.93R
CLE-LAKEFRONT  SUNNY     64  57  78 N12       29.91R
CUY CO. ARPT   MOSUNNY   72  57  60 N9        29.92R
LORAIN-ELYRIA  PTSUNNY   71  55  56 NE7       29.91S
ASHTABULA      PTSUNNY   69  55  60 VRB6      29.93R
AKRON-CANTON   PTSUNNY   72  60  66 E8        29.90F
WOOSTER        CLOUDY    68  61  78 E7        29.91R
MANSFIELD      CLOUDY    69  61  75 NE5       29.91R
YOUNGSTOWN     MOSUNNY   70  56  61 VRB3      29.91R
$$

OHZ042-051>053-060>062-070>072-077>081-271800-
  SOUTHWEST OHIO

CITY           SKY/WX    TMP DP  RH WIND       PRES   REMARKS
CINC-COVINGTON PTSUNNY   77  68  73 SW8       29.89S
CINC-LUNKEN    CLOUDY    78  70  76 W7        29.88S
HAMILTON       PTSUNNY   77  69  76 SW7       29.89S
DAYTON         CLOUDY    74  66  76 W7        29.90R
WRIGHT-PAT AFB NOT AVBL
DAYTON GENERAL PTSUNNY   75  66  73 VRB7      29.88S
WILMINGTON     PTSUNNY   77  70  79 W9        29.88S
$$

OHZ036-037-039>041-045>050-054>059-063>069-073>076-082>088-271800-
  CENTRAL AND SOUTHEAST OHIO

CITY           SKY/WX    TMP DP  RH WIND       PRES   REMARKS
COLUMBUS       CLOUDY    75  65  70 VRB3      29.88R
OSU AIRPORT    PTSUNNY   73  66  78 NW5       29.89R
BOLTON FIELD   NOT AVBL
RICKENBACK AFB CLOUDY    73  66  80 CALM      29.87R
NEWARK         CLOUDY    73  62  68 CALM      29.88S
MARION         CLOUDY    71  61  70 CALM      29.91R
LANCASTER      CLOUDY    77  66  68 N5        29.89R
ZANESVILLE     CLOUDY    73  63  70 CALM      29.89R
NEW PHILLY     NOT AVBL
$$



USA.gov is the U.S. government's official web portal to all federal, state and local government web resources and services.